DECAYED

CZ-2D R/B, 61445 (Decayed)

Orbit data source: Space-Track

CZ-2D R/B, 61445 was space debris in LEO originally from a launch on Fri, 27 Sep 2024 UTC launched from the Jiuquan Satellite Launch Center, China (JSC). Debris objects in space refer to the collection of defunct objects orbiting the Earth. Examples of debris include non-operational satellites, rocket bodies, and fragments generated from explosions, collisions, or faulty payload assembly.

Not visible in the next 10 days
CZ-2D R/B details
Identifier
61445, 2024-177B
Orbit
Decayed
Last TLE update3 months ago
Origin
Flag of CNCASC (CN / PRC)
ManufacturerBWYIC
MissionDecayed spacecraft
Bus & MotorCZ-2 STAGE 2, Unknown motor
Mass4,006 kg wet, 4,006 kg dry
Launch date (UTC)
2024-09-27 (4 months ago)
Launch vehicleUnknown
Launch site
Jiuquan Satellite Launch Center, China (JSC)
Object type
Payload
Rocket body
Debris
Shape & HBRCyl + 1 Sail, 8.9 m
Radar Cross Section27.824 m², Large (>1 m²)

Expand to show TLE details & history

TLE from 3 months ago
0 CZ-2D R/B
1 61445U 24177B   24315.22634495  .07484936  79825-5  67146-3 0  9995
2 61445  41.3775 239.1072 0007529 234.7996 251.2891 16.37905997  6994
Epoch: 2024-11-10T05:25Z
Definitive object data (Epoch: 2024-11-10T05:25:56.203Z)
Latitude32.45712°
Longitude-118.12239°
Altitude173.711 km
Speed7.806 km/s
True Right ascension00h 52m 55s
True Declination32° 17' 16"
Sunlit
Object was in full shadow at TLE epoch
Visualization observer readout
Observer readout values are unavailable because the object's trajectory could not be propagated. This is usually caused when the trajectory data is faulty or the object's orbit has decayed.
Visualization observer readout
Observer readout values are unavailable because the object's trajectory could not be propagated. This is usually caused when the trajectory data is faulty or the object's orbit has decayed.
Orbital elements
Apogee altitude178.633 km
Perigee altitude168.768 km
Semi-major axis6,551.838 km
Eccentricity0.0007529
Inclination41.3775°
RAAN239.1072°
Arg. of periapsis234.7996°
True anomaly251.20741°
Mean anomaly251.2891°
Eccentric anomaly251.24825°
Mean motion4.09259 °/min
BSTAR0.00067146
Orbital period87.96 mins
Loading maneuver chart data...
Loading historical data...
Loading historical data...
Loading historical data...
Loading historical data...
Loading historical data...
Loading historical data...
Loading historical data...

CZ-2D R/B Visibility forecast

Observer location: undefined°, undefined

This satellite is decayed
Span
Click to sort rows by Start time (UTC) header in descending order
Start Az.
Max El. time (UTC)
Max El. Az.
Max El.
End time (UTC)
End Az.
|